Year,Month,Day,Hour,Minute,Value (Times are PST for temperature in C)
2012,08,03,00,02,13.60
2012,08,03,00,04,13.60
2012,08,03,00,05,13.60
2012,08,03,00,06,13.60
2012,08,03,00,07,13.60
2012,08,03,00,08,13.60
2012,08,03,00,09,13.60
2012,08,03,00,10,13.60
2012,08,03,00,11,13.60
2012,08,03,00,12,13.60
2012,08,03,00,13,13.60
2012,08,03,00,14,13.60
2012,08,03,00,15,13.60
2012,08,03,00,16,13.50
2012,08,03,00,17,13.50
2012,08,03,00,18,13.50
2012,08,03,00,19,13.50
2012,08,03,00,20,13.50
2012,08,03,00,21,13.50
2012,08,03,00,22,13.40
2012,08,03,00,23,13.50
2012,08,03,00,24,13.50
2012,08,03,00,25,13.40
2012,08,03,00,26,13.40
2012,08,03,00,27,13.40
2012,08,03,00,28,13.40
2012,08,03,00,29,13.40
2012,08,03,00,30,13.40
2012,08,03,00,31,13.30
2012,08,03,00,32,13.30
2012,08,03,00,33,13.30
2012,08,03,00,34,13.30
2012,08,03,00,35,13.30
2012,08,03,00,36,13.20
2012,08,03,00,37,13.20
2012,08,03,00,38,13.20
2012,08,03,00,39,13.20
2012,08,03,00,40,13.20
2012,08,03,00,41,13.10
2012,08,03,00,42,13.10
2012,08,03,00,43,13.10
2012,08,03,00,44,13.10
2012,08,03,00,45,13.10
2012,08,03,00,46,13.10
2012,08,03,00,47,13.10
2012,08,03,00,48,13.10
2012,08,03,00,49,13.10
2012,08,03,00,50,13.10
2012,08,03,00,51,13.10
2012,08,03,00,52,13.10
2012,08,03,00,53,13.10
2012,08,03,00,54,13.10
2012,08,03,00,55,13.10
2012,08,03,00,56,13.10
2012,08,03,00,57,13.20
2012,08,03,00,58,13.10
2012,08,03,00,59,13.10
2012,08,03,01,00,13.20
2012,08,03,01,01,13.20
2012,08,03,01,02,13.20
2012,08,03,01,03,13.20
2012,08,03,01,04,13.20
2012,08,03,01,05,13.20
2012,08,03,01,06,13.20
2012,08,03,01,07,13.20
2012,08,03,01,08,13.20
2012,08,03,01,09,13.10
2012,08,03,01,10,13.10
2012,08,03,01,11,13.10
2012,08,03,01,12,13.10
2012,08,03,01,13,13.10
2012,08,03,01,14,13.10
2012,08,03,01,15,13.10
2012,08,03,01,16,13.10
2012,08,03,01,17,13.10
2012,08,03,01,18,13.10
2012,08,03,01,19,13.10
2012,08,03,01,20,13.10
2012,08,03,01,21,13.10
2012,08,03,01,22,13.10
2012,08,03,01,23,13.10
2012,08,03,01,24,13.00
2012,08,03,01,25,13.00
2012,08,03,01,26,13.00
2012,08,03,01,27,13.00
2012,08,03,01,28,12.90
2012,08,03,01,29,12.90
2012,08,03,01,31,12.90
2012,08,03,01,32,12.90
2012,08,03,01,33,12.90
2012,08,03,01,35,12.90
2012,08,03,01,36,12.90
2012,08,03,01,37,12.90
2012,08,03,01,38,12.90
2012,08,03,01,40,12.90
2012,08,03,01,41,12.90
2012,08,03,01,42,12.80
2012,08,03,01,43,12.80
2012,08,03,01,45,12.80
2012,08,03,01,46,12.80
2012,08,03,01,47,12.80
2012,08,03,01,48,12.80
2012,08,03,01,50,12.80
2012,08,03,01,51,12.80
2012,08,03,01,52,12.80
2012,08,03,01,53,12.80
2012,08,03,01,55,12.80
2012,08,03,01,56,12.70
2012,08,03,01,57,12.70
2012,08,03,01,58,12.70
2012,08,03,01,59,12.70
2012,08,03,02,00,12.70
2012,08,03,02,01,12.70
2012,08,03,02,02,12.70
2012,08,03,02,04,12.60
2012,08,03,02,05,12.60
2012,08,03,02,06,12.60
2012,08,03,02,08,12.60
2012,08,03,02,09,12.60
2012,08,03,02,10,12.60
2012,08,03,02,11,12.60
2012,08,03,02,13,12.50
2012,08,03,02,14,12.50
2012,08,03,02,15,12.50
2012,08,03,02,16,12.40
2012,08,03,02,18,12.40
2012,08,03,02,19,12.40
2012,08,03,02,20,12.30
2012,08,03,02,21,12.30
2012,08,03,02,23,12.30
2012,08,03,02,24,12.30
2012,08,03,02,25,12.30
2012,08,03,02,26,12.30
2012,08,03,02,28,12.30
2012,08,03,02,29,12.20
2012,08,03,02,31,12.20
2012,08,03,02,32,12.20
2012,08,03,02,33,12.20
2012,08,03,02,34,12.10
2012,08,03,02,36,12.10
2012,08,03,02,37,12.10
2012,08,03,02,38,12.10
2012,08,03,02,39,12.10
2012,08,03,02,41,12.10
2012,08,03,02,42,12.10
2012,08,03,02,43,12.10
2012,08,03,02,44,12.10
2012,08,03,02,46,12.10
2012,08,03,02,47,12.10
2012,08,03,02,48,12.10
2012,08,03,02,49,12.10
2012,08,03,02,51,12.10
2012,08,03,02,52,12.10
2012,08,03,02,53,12.10
2012,08,03,02,55,12.10
2012,08,03,02,56,12.10
2012,08,03,02,57,12.10
2012,08,03,02,58,12.10
2012,08,03,02,59,12.00
2012,08,03,03,00,12.00
2012,08,03,03,01,12.00
2012,08,03,03,02,12.00
2012,08,03,03,04,11.90
2012,08,03,03,05,11.90
2012,08,03,03,06,11.90
2012,08,03,03,07,11.90
2012,08,03,03,08,11.90
2012,08,03,03,10,11.90
2012,08,03,03,11,11.90
2012,08,03,03,12,11.90
2012,08,03,03,13,11.90
2012,08,03,03,15,11.90
2012,08,03,03,16,11.90
2012,08,03,03,17,11.90
2012,08,03,03,18,12.00
2012,08,03,03,19,12.00
2012,08,03,03,21,12.00
2012,08,03,03,22,12.00
2012,08,03,03,23,12.00
2012,08,03,03,24,12.00
2012,08,03,03,26,12.00
2012,08,03,03,27,12.00
2012,08,03,03,28,12.00
2012,08,03,03,29,11.90
2012,08,03,03,30,11.90
2012,08,03,03,31,11.90
2012,08,03,03,32,11.90
2012,08,03,03,33,11.90
2012,08,03,03,34,11.90
2012,08,03,03,35,11.90
2012,08,03,03,36,11.90
2012,08,03,03,37,11.80
2012,08,03,03,38,11.80
2012,08,03,03,39,11.80
2012,08,03,03,40,11.80
2012,08,03,03,41,11.80
2012,08,03,03,42,11.80
2012,08,03,03,43,11.80
2012,08,03,03,44,11.70
2012,08,03,03,45,11.70
2012,08,03,03,46,11.70
2012,08,03,03,47,11.70
2012,08,03,03,48,11.60
2012,08,03,03,49,11.60
2012,08,03,03,50,11.60
2012,08,03,03,51,11.60
2012,08,03,03,52,11.60
2012,08,03,03,53,11.60
2012,08,03,03,54,11.60
2012,08,03,03,55,11.60
2012,08,03,03,56,11.60
2012,08,03,03,57,11.70
2012,08,03,03,58,11.70
2012,08,03,03,59,11.60
2012,08,03,04,00,11.60
2012,08,03,04,01,11.60
2012,08,03,04,02,11.60
2012,08,03,04,03,11.60
2012,08,03,04,04,11.60
2012,08,03,04,06,11.60
2012,08,03,04,07,11.60
2012,08,03,04,08,11.60
2012,08,03,04,09,11.60
2012,08,03,04,10,11.60
2012,08,03,04,11,11.60
2012,08,03,04,12,11.50
2012,08,03,04,13,11.50
2012,08,03,04,14,11.50
2012,08,03,04,15,11.50
2012,08,03,04,16,11.50
2012,08,03,04,17,11.50
2012,08,03,04,18,11.40
2012,08,03,04,19,11.40
2012,08,03,04,20,11.40
2012,08,03,04,21,11.40
2012,08,03,04,22,11.40
2012,08,03,04,23,11.40
2012,08,03,04,24,11.40
2012,08,03,04,25,11.40
2012,08,03,04,26,11.40
2012,08,03,04,27,11.40
2012,08,03,04,28,11.40
2012,08,03,04,29,11.50
2012,08,03,04,31,11.40
2012,08,03,04,32,11.40
2012,08,03,04,33,11.40
2012,08,03,04,34,11.50
2012,08,03,04,35,11.50
2012,08,03,04,37,11.50
2012,08,03,04,38,11.50
2012,08,03,04,39,11.60
2012,08,03,04,40,11.60
2012,08,03,04,42,11.60
2012,08,03,04,43,11.60
2012,08,03,04,44,11.60
2012,08,03,04,45,11.60
2012,08,03,04,46,11.60
2012,08,03,04,48,11.60
2012,08,03,04,49,11.60
2012,08,03,04,50,11.60
2012,08,03,04,52,11.60
2012,08,03,04,53,11.60
2012,08,03,04,54,11.60
2012,08,03,04,55,11.60
2012,08,03,04,57,11.60
2012,08,03,04,58,11.60
2012,08,03,04,59,11.60
2012,08,03,05,00,11.60
2012,08,03,05,02,11.60
2012,08,03,05,03,11.50
2012,08,03,05,04,11.40
2012,08,03,05,05,11.40
2012,08,03,05,06,11.40
2012,08,03,05,08,11.30
2012,08,03,05,09,11.30
2012,08,03,05,10,11.30
2012,08,03,05,11,11.30
2012,08,03,05,13,11.30
2012,08,03,05,14,11.30
2012,08,03,05,15,11.30
2012,08,03,05,17,11.30
2012,08,03,05,18,11.30
2012,08,03,05,20,11.30
2012,08,03,05,21,11.30
2012,08,03,05,22,11.30
2012,08,03,05,23,11.30
2012,08,03,05,24,11.30
2012,08,03,05,26,11.30
2012,08,03,05,27,11.30
2012,08,03,05,28,11.30
2012,08,03,05,29,11.40
2012,08,03,05,31,11.40
2012,08,03,05,32,11.40
2012,08,03,05,33,11.40
2012,08,03,05,35,11.40
2012,08,03,05,36,11.50
2012,08,03,05,37,11.60
2012,08,03,05,38,11.60
2012,08,03,05,40,11.60
2012,08,03,05,41,11.60
2012,08,03,05,42,11.60
2012,08,03,05,44,11.70
2012,08,03,05,45,11.70
2012,08,03,05,46,11.70
2012,08,03,05,47,11.70
2012,08,03,05,48,11.70
2012,08,03,05,50,11.70
2012,08,03,05,51,11.70
2012,08,03,05,52,11.70
2012,08,03,05,53,11.70
2012,08,03,05,55,11.70
2012,08,03,05,56,11.70
2012,08,03,05,57,11.70
2012,08,03,05,58,11.70
2012,08,03,05,59,11.70
2012,08,03,06,01,11.70
2012,08,03,06,02,11.70
2012,08,03,06,03,11.70
2012,08,03,06,04,11.80
2012,08,03,06,06,11.80
2012,08,03,06,07,11.80
2012,08,03,06,08,11.90
2012,08,03,06,09,11.90
2012,08,03,06,11,11.90
2012,08,03,06,12,11.90
2012,08,03,06,13,11.90
2012,08,03,06,14,12.00
2012,08,03,06,15,12.00
2012,08,03,06,17,12.10
2012,08,03,06,18,12.10
2012,08,03,06,19,12.10
2012,08,03,06,20,12.10
2012,08,03,06,22,12.10
2012,08,03,06,23,12.00
2012,08,03,06,24,12.00
2012,08,03,06,25,11.90
2012,08,03,06,27,11.90
2012,08,03,06,28,11.80
2012,08,03,06,29,11.80
2012,08,03,06,30,11.80
2012,08,03,06,32,11.80
2012,08,03,06,33,11.70
2012,08,03,06,34,11.70
2012,08,03,06,35,11.70
2012,08,03,06,37,11.70
2012,08,03,06,38,11.60
2012,08,03,06,39,11.60
2012,08,03,06,40,11.60
2012,08,03,06,42,11.60
2012,08,03,06,43,11.60
2012,08,03,06,44,11.50
2012,08,03,06,45,11.50
2012,08,03,06,46,11.50
2012,08,03,06,47,11.50
2012,08,03,06,48,11.50
2012,08,03,06,49,11.60
2012,08,03,06,50,11.60
2012,08,03,06,52,11.60
2012,08,03,06,53,11.70
2012,08,03,06,54,11.70
2012,08,03,06,56,11.70
2012,08,03,06,57,11.80
2012,08,03,06,58,11.90
2012,08,03,06,59,12.00
2012,08,03,07,01,12.10
2012,08,03,07,02,12.10
2012,08,03,07,03,12.20
2012,08,03,07,05,12.30
2012,08,03,07,06,12.30
2012,08,03,07,07,12.50
2012,08,03,07,08,12.70
2012,08,03,07,09,12.80
2012,08,03,07,11,12.90
2012,08,03,07,12,13.10
2012,08,03,07,13,13.30
2012,08,03,07,14,13.40
2012,08,03,07,15,13.50
2012,08,03,07,17,13.60
2012,08,03,07,18,13.70
2012,08,03,07,19,13.80
2012,08,03,07,20,13.80
2012,08,03,07,22,13.90
2012,08,03,07,23,13.90
2012,08,03,07,24,14.00
2012,08,03,07,26,14.10
2012,08,03,07,27,14.20
2012,08,03,07,28,14.20
2012,08,03,07,29,14.30
2012,08,03,07,31,14.40
2012,08,03,07,32,14.60
2012,08,03,07,33,14.70
2012,08,03,07,35,14.80
2012,08,03,07,36,14.90
2012,08,03,07,37,15.00
2012,08,03,07,38,15.10
2012,08,03,07,40,15.20
2012,08,03,07,41,15.30
2012,08,03,07,42,15.40
2012,08,03,07,43,15.40
2012,08,03,07,44,15.50
2012,08,03,07,45,15.60
2012,08,03,07,46,15.70
2012,08,03,07,47,15.80
2012,08,03,07,48,15.90
2012,08,03,07,50,16.00
2012,08,03,07,51,16.20
2012,08,03,07,52,16.20
2012,08,03,07,53,16.30
2012,08,03,07,54,16.40
2012,08,03,07,55,16.40
2012,08,03,07,56,16.50
2012,08,03,07,57,16.60
2012,08,03,07,58,16.70
2012,08,03,07,59,16.70
2012,08,03,08,01,16.80
2012,08,03,08,02,16.90
2012,08,03,08,03,16.90
2012,08,03,08,04,16.90
2012,08,03,08,06,17.00
2012,08,03,08,07,17.10
2012,08,03,08,08,17.10
2012,08,03,08,09,17.20
2012,08,03,08,10,17.20
2012,08,03,08,11,17.20
2012,08,03,08,13,17.20
2012,08,03,08,14,17.30
2012,08,03,08,15,17.30
2012,08,03,08,16,17.40
2012,08,03,08,18,17.40
2012,08,03,08,19,17.50
2012,08,03,08,20,17.50
2012,08,03,08,21,17.60
2012,08,03,08,23,17.60
2012,08,03,08,24,17.70
2012,08,03,08,25,17.70
2012,08,03,08,26,17.80
2012,08,03,08,28,17.80
2012,08,03,08,29,17.80
2012,08,03,08,30,17.90
2012,08,03,08,31,18.00
2012,08,03,08,32,18.00
2012,08,03,08,34,18.10
2012,08,03,08,35,18.10
2012,08,03,08,36,18.10
2012,08,03,08,37,18.10
2012,08,03,08,39,18.10
2012,08,03,08,40,18.10
2012,08,03,08,41,18.10
2012,08,03,08,42,18.20
2012,08,03,08,43,18.20
2012,08,03,08,44,18.20
2012,08,03,08,45,18.20
2012,08,03,08,46,18.10
2012,08,03,08,47,18.10
2012,08,03,08,49,18.10
2012,08,03,08,50,18.10
2012,08,03,08,51,18.10
2012,08,03,08,52,18.10
2012,08,03,08,54,18.10
2012,08,03,08,55,18.10
2012,08,03,08,56,18.10
2012,08,03,08,57,18.10
2012,08,03,08,59,18.20
2012,08,03,09,00,18.20
2012,08,03,09,01,18.20
2012,08,03,09,02,18.20
2012,08,03,09,04,18.20
2012,08,03,09,05,18.30
2012,08,03,09,06,18.30
2012,08,03,09,07,18.30
2012,08,03,09,09,18.30
2012,08,03,09,10,18.30
2012,08,03,09,11,18.30
2012,08,03,09,12,18.30
2012,08,03,09,13,18.30
2012,08,03,09,15,18.30
2012,08,03,09,16,18.30
2012,08,03,09,17,18.30
2012,08,03,09,19,18.40
2012,08,03,09,20,18.40
2012,08,03,09,21,18.40
2012,08,03,09,23,18.50
2012,08,03,09,24,18.50
2012,08,03,09,25,18.50
2012,08,03,09,26,18.60
2012,08,03,09,28,18.60
2012,08,03,09,29,18.60
2012,08,03,09,30,18.60
2012,08,03,09,31,18.60
2012,08,03,09,33,18.60
2012,08,03,09,34,18.60
2012,08,03,09,35,18.60
2012,08,03,09,37,18.60
2012,08,03,09,38,18.60
2012,08,03,09,39,18.60
2012,08,03,09,40,18.60
2012,08,03,09,41,18.60
2012,08,03,09,42,18.60
2012,08,03,09,43,18.60
2012,08,03,09,45,18.70
2012,08,03,09,46,18.70
2012,08,03,09,47,18.70
2012,08,03,09,48,18.80
2012,08,03,09,50,18.80
2012,08,03,09,51,18.90
2012,08,03,09,52,18.90
2012,08,03,09,53,18.90
2012,08,03,09,55,18.90
2012,08,03,09,56,18.90
2012,08,03,09,57,19.00
2012,08,03,09,58,19.10
2012,08,03,09,59,19.10
2012,08,03,10,00,19.10
2012,08,03,10,01,19.10
2012,08,03,10,02,19.10
2012,08,03,10,03,19.10
2012,08,03,10,05,19.10
2012,08,03,10,06,19.10
2012,08,03,10,07,19.10
2012,08,03,10,08,19.10
2012,08,03,10,10,19.10
2012,08,03,10,11,19.10
2012,08,03,10,12,19.10
2012,08,03,10,13,19.10
2012,08,03,10,15,19.10
2012,08,03,10,16,19.10
2012,08,03,10,17,19.10
2012,08,03,10,18,19.20
2012,08,03,10,20,19.10
2012,08,03,10,21,19.20
2012,08,03,10,22,19.20
2012,08,03,10,23,19.20
2012,08,03,10,25,19.20
2012,08,03,10,26,19.20
2012,08,03,10,27,19.30
2012,08,03,10,28,19.30
2012,08,03,10,29,19.40
2012,08,03,10,31,19.40
2012,08,03,10,32,19.40
2012,08,03,10,33,19.40
2012,08,03,10,34,19.40
2012,08,03,10,36,19.40
2012,08,03,10,37,19.50
2012,08,03,10,38,19.50
2012,08,03,10,39,19.50
2012,08,03,10,41,19.50
2012,08,03,10,42,19.50
2012,08,03,10,43,19.60
2012,08,03,10,44,19.60
2012,08,03,10,46,19.70
2012,08,03,10,47,19.70
2012,08,03,10,48,19.80
2012,08,03,10,49,19.80
2012,08,03,10,51,19.90
2012,08,03,10,52,20.00
2012,08,03,10,53,20.10
2012,08,03,10,54,20.20
2012,08,03,10,56,20.30
2012,08,03,10,57,20.30
2012,08,03,10,58,20.20
2012,08,03,10,59,20.10
2012,08,03,11,00,20.00
2012,08,03,11,01,19.90
2012,08,03,11,03,19.80
2012,08,03,11,04,19.90
2012,08,03,11,05,19.90
2012,08,03,11,07,19.90
2012,08,03,11,08,19.90
2012,08,03,11,09,20.00
2012,08,03,11,10,20.10
2012,08,03,11,12,20.10
2012,08,03,11,13,20.20
2012,08,03,11,14,20.20
2012,08,03,11,15,20.20
2012,08,03,11,16,20.30
2012,08,03,11,18,20.30
2012,08,03,11,19,20.40
2012,08,03,11,20,20.40
2012,08,03,11,21,20.40
2012,08,03,11,23,20.50
2012,08,03,11,24,20.60
2012,08,03,11,25,20.60
2012,08,03,11,26,20.60
2012,08,03,11,27,20.70
2012,08,03,11,29,20.70
2012,08,03,11,30,20.80
2012,08,03,11,31,20.70
2012,08,03,11,32,20.70
2012,08,03,11,33,20.70
2012,08,03,11,34,20.70
2012,08,03,11,35,20.80
2012,08,03,11,36,20.80
2012,08,03,11,37,20.90
2012,08,03,11,38,20.90
2012,08,03,11,40,20.90
2012,08,03,11,41,20.90
2012,08,03,11,42,20.90
2012,08,03,11,43,20.90
2012,08,03,11,44,20.90
2012,08,03,11,45,20.90
2012,08,03,11,46,21.00
2012,08,03,11,47,21.10
2012,08,03,11,49,21.10
2012,08,03,11,50,21.10
2012,08,03,11,51,21.00
2012,08,03,11,52,20.90
2012,08,03,11,54,20.90
2012,08,03,11,55,20.90
2012,08,03,11,56,20.90
2012,08,03,11,57,20.90
2012,08,03,11,58,21.00
2012,08,03,11,59,21.00
2012,08,03,12,00,21.10
2012,08,03,12,01,21.10
2012,08,03,12,02,21.20
2012,08,03,12,03,21.20
2012,08,03,12,04,21.20
2012,08,03,12,05,21.30
2012,08,03,12,06,21.30
2012,08,03,12,07,21.30
2012,08,03,12,08,21.30
2012,08,03,12,09,21.30
2012,08,03,12,10,21.30
2012,08,03,12,11,21.30
2012,08,03,12,14,21.40
2012,08,03,12,18,21.50
2012,08,03,12,19,21.60
2012,08,03,12,20,21.70
2012,08,03,12,21,21.70
2012,08,03,12,23,21.70
2012,08,03,12,24,21.80
2012,08,03,12,25,21.80
2012,08,03,12,26,21.80
2012,08,03,12,28,21.90
2012,08,03,12,29,21.90
2012,08,03,12,30,21.90
2012,08,03,12,31,21.90
2012,08,03,12,33,22.00
2012,08,03,12,34,22.00
2012,08,03,12,35,21.90
2012,08,03,12,36,21.90
2012,08,03,12,37,22.00
2012,08,03,12,38,22.10
2012,08,03,12,39,22.10
2012,08,03,12,40,22.20
2012,08,03,12,41,22.30
2012,08,03,12,42,22.30
2012,08,03,12,43,22.40
2012,08,03,12,44,22.40
2012,08,03,12,45,22.40
2012,08,03,12,46,22.50
2012,08,03,12,47,22.60
2012,08,03,12,48,22.70
2012,08,03,12,49,22.80
2012,08,03,12,50,22.80
2012,08,03,12,52,22.80
2012,08,03,12,53,22.90
2012,08,03,12,54,22.90
2012,08,03,12,55,23.00
2012,08,03,12,57,23.10
2012,08,03,12,58,23.20
2012,08,03,12,59,23.30
2012,08,03,13,00,23.30
2012,08,03,13,01,23.30
2012,08,03,13,02,23.30
2012,08,03,13,03,23.40
2012,08,03,13,04,23.50
2012,08,03,13,05,23.60
2012,08,03,13,06,23.60
2012,08,03,13,07,23.60
2012,08,03,13,08,23.60
2012,08,03,13,09,23.70
2012,08,03,13,10,23.70
2012,08,03,13,11,23.60
2012,08,03,13,12,23.60
2012,08,03,13,13,23.60
2012,08,03,13,14,23.60
2012,08,03,13,15,23.60
2012,08,03,13,16,23.60
2012,08,03,13,17,23.60
2012,08,03,13,18,23.60
2012,08,03,13,19,23.60
2012,08,03,13,21,23.70
2012,08,03,13,22,23.70
2012,08,03,13,23,23.70
2012,08,03,13,24,23.70
2012,08,03,13,26,23.70
2012,08,03,13,27,23.70
2012,08,03,13,28,23.80
2012,08,03,13,29,23.80
2012,08,03,13,31,23.80
2012,08,03,13,32,23.90
2012,08,03,13,33,24.00
2012,08,03,13,34,24.10
2012,08,03,13,36,24.20
2012,08,03,13,37,24.30
2012,08,03,13,38,24.40
2012,08,03,13,40,24.60
2012,08,03,13,41,24.60
2012,08,03,13,42,24.70
2012,08,03,13,43,24.70
2012,08,03,13,45,24.70
2012,08,03,13,46,24.70
2012,08,03,13,47,24.70
2012,08,03,13,48,24.80
2012,08,03,13,50,24.90
2012,08,03,13,51,24.90
2012,08,03,13,52,25.00
2012,08,03,13,53,25.00
2012,08,03,13,55,25.00
2012,08,03,13,56,24.90
2012,08,03,13,57,24.80
2012,08,03,13,58,24.80
2012,08,03,14,00,24.70
2012,08,03,14,01,24.70
2012,08,03,14,02,24.70
2012,08,03,14,03,24.80
2012,08,03,14,05,24.80
2012,08,03,14,06,24.80
2012,08,03,14,07,24.90
2012,08,03,14,08,24.90
2012,08,03,14,09,24.90
2012,08,03,14,10,24.90
2012,08,03,14,11,24.80
2012,08,03,14,12,24.70
2012,08,03,14,14,24.60
2012,08,03,14,15,24.60
2012,08,03,14,16,24.60
2012,08,03,14,17,24.60
2012,08,03,14,18,24.60
2012,08,03,14,19,24.60
2012,08,03,14,20,24.60
2012,08,03,14,21,24.60
2012,08,03,14,23,24.60
2012,08,03,14,24,24.60
2012,08,03,14,25,24.60
2012,08,03,14,27,24.70
2012,08,03,14,28,24.70
2012,08,03,14,29,24.80
2012,08,03,14,30,24.80
2012,08,03,14,31,24.90
2012,08,03,14,32,25.00
2012,08,03,14,33,25.10
2012,08,03,14,34,25.00
2012,08,03,14,35,25.00
2012,08,03,14,36,25.00
2012,08,03,14,37,25.00
2012,08,03,14,38,25.10
2012,08,03,14,39,25.20
2012,08,03,14,40,25.20
2012,08,03,14,41,25.30
2012,08,03,14,42,25.40
2012,08,03,14,43,25.40
2012,08,03,14,44,25.50
2012,08,03,14,45,25.60
2012,08,03,14,46,25.60
2012,08,03,14,47,25.70
2012,08,03,14,48,25.70
2012,08,03,14,49,25.80
2012,08,03,14,50,25.80
2012,08,03,14,51,25.80
2012,08,03,14,52,25.90
2012,08,03,14,53,25.90
2012,08,03,14,55,25.80
2012,08,03,14,56,25.70
2012,08,03,14,57,25.60
2012,08,03,14,58,25.60
2012,08,03,14,59,25.60
2012,08,03,15,00,25.60
2012,08,03,15,02,25.60
2012,08,03,15,03,25.80
2012,08,03,15,04,25.80
2012,08,03,15,06,25.90
2012,08,03,15,07,26.10
2012,08,03,15,08,26.20
2012,08,03,15,09,26.30
2012,08,03,15,10,26.30
2012,08,03,15,11,26.30
2012,08,03,15,12,26.40
2012,08,03,15,13,26.60
2012,08,03,15,14,26.60
2012,08,03,15,15,26.60
2012,08,03,15,16,26.60
2012,08,03,15,17,26.60
2012,08,03,15,18,26.70
2012,08,03,15,19,26.80
2012,08,03,15,20,26.80
2012,08,03,15,21,26.80
2012,08,03,15,22,26.80
2012,08,03,15,23,26.70
2012,08,03,15,24,26.60
2012,08,03,15,25,26.40
2012,08,03,15,26,26.20
2012,08,03,15,27,26.10
2012,08,03,15,28,25.90
2012,08,03,15,29,25.80
2012,08,03,15,30,25.80
2012,08,03,15,31,25.80
2012,08,03,15,32,25.80
2012,08,03,15,33,25.80
2012,08,03,15,34,25.80
2012,08,03,15,35,25.80
2012,08,03,15,36,25.90
2012,08,03,15,37,25.90
2012,08,03,15,38,26.10
2012,08,03,15,39,26.10
2012,08,03,15,40,26.20
2012,08,03,15,41,26.20
2012,08,03,15,43,26.30
2012,08,03,15,44,26.30
2012,08,03,15,45,26.30
2012,08,03,15,46,26.40
2012,08,03,15,47,26.40
2012,08,03,15,48,26.50
2012,08,03,15,49,26.50
2012,08,03,15,50,26.60
2012,08,03,15,51,26.60
2012,08,03,15,52,26.70
2012,08,03,15,53,26.70
2012,08,03,15,54,26.80
2012,08,03,15,56,26.80
2012,08,03,15,57,26.70
2012,08,03,15,58,26.70
2012,08,03,15,59,26.50
2012,08,03,16,00,26.50
2012,08,03,16,01,26.40
2012,08,03,16,02,26.40
2012,08,03,16,03,26.40
2012,08,03,16,04,26.40
2012,08,03,16,05,26.40
2012,08,03,16,06,26.40
2012,08,03,16,07,26.40
2012,08,03,16,09,26.40
2012,08,03,16,10,26.40
2012,08,03,16,11,26.40
2012,08,03,16,12,26.40
2012,08,03,16,13,26.40
2012,08,03,16,14,26.40
2012,08,03,16,15,26.40
2012,08,03,16,16,26.40
2012,08,03,16,17,26.40
2012,08,03,16,18,26.50
2012,08,03,16,19,26.40
2012,08,03,16,20,26.30
2012,08,03,16,21,26.20
2012,08,03,16,22,26.10
2012,08,03,16,23,26.10
2012,08,03,16,24,26.10
2012,08,03,16,25,26.10
2012,08,03,16,26,26.10
2012,08,03,16,27,26.20
2012,08,03,16,29,26.20
2012,08,03,16,30,26.20
2012,08,03,16,31,26.20
2012,08,03,16,32,26.30
2012,08,03,16,33,26.30
2012,08,03,16,35,26.30
2012,08,03,16,36,26.40
2012,08,03,16,37,26.40
2012,08,03,16,39,26.40
2012,08,03,16,40,26.40
2012,08,03,16,41,26.40
2012,08,03,16,42,26.40
2012,08,03,16,44,26.40
2012,08,03,16,45,26.20
2012,08,03,16,46,26.10
2012,08,03,16,48,25.90
2012,08,03,16,49,25.70
2012,08,03,16,50,25.70
2012,08,03,16,51,25.70
2012,08,03,16,53,25.70
2012,08,03,16,54,25.90
2012,08,03,16,55,26.10
2012,08,03,16,57,26.20
2012,08,03,16,58,26.30
2012,08,03,16,59,26.30
2012,08,03,17,00,26.40
2012,08,03,17,02,26.50
2012,08,03,17,03,26.70
2012,08,03,17,38,27.50
2012,08,03,17,39,27.60
2012,08,03,17,41,27.60
2012,08,03,17,42,27.50
2012,08,03,17,55,27.30
2012,08,03,17,56,27.30
2012,08,03,17,57,27.20
2012,08,03,17,59,27.20
2012,08,03,18,00,27.20
2012,08,03,18,01,27.20
2012,08,03,18,02,27.10
2012,08,03,18,48,26.20
2012,08,03,18,52,26.10
2012,08,03,18,53,26.00
2012,08,03,18,54,26.00
2012,08,03,18,55,26.00
2012,08,03,18,56,25.90
2012,08,03,18,57,25.90
2012,08,03,18,58,25.90
2012,08,03,19,00,25.90
2012,08,03,19,01,25.80
2012,08,03,19,02,25.80
2012,08,03,19,04,25.70
2012,08,03,19,05,25.70
2012,08,03,19,06,25.60
2012,08,03,19,07,25.60
2012,08,03,19,08,25.50
2012,08,03,19,10,25.40
2012,08,03,19,11,25.30
2012,08,03,19,12,25.10
2012,08,03,19,13,25.10
2012,08,03,19,15,25.00
2012,08,03,19,16,24.90
2012,08,03,19,17,24.90
2012,08,03,19,18,24.80
2012,08,03,19,20,24.80
2012,08,03,19,21,24.70
2012,08,03,19,22,24.70
2012,08,03,19,23,24.60
2012,08,03,19,25,24.60
2012,08,03,19,26,24.60
2012,08,03,19,27,24.70
2012,08,03,19,29,24.70
2012,08,03,19,30,24.70
2012,08,03,19,31,24.80
2012,08,03,19,32,24.80
2012,08,03,19,33,24.80
2012,08,03,19,34,24.80
2012,08,03,19,36,24.80
2012,08,03,19,37,24.80
2012,08,03,19,38,24.80
2012,08,03,19,39,24.80
2012,08,03,19,40,24.80
2012,08,03,19,41,24.80
2012,08,03,19,42,24.80
2012,08,03,19,43,24.90
2012,08,03,19,44,24.90
2012,08,03,19,45,24.80
2012,08,03,19,46,24.80
2012,08,03,19,47,24.80
2012,08,03,19,48,24.80
2012,08,03,19,50,24.70
2012,08,03,19,51,24.60
2012,08,03,19,52,24.50
2012,08,03,19,53,24.40
2012,08,03,19,54,24.40
2012,08,03,19,55,24.30
2012,08,03,19,56,24.20
2012,08,03,19,57,24.10
2012,08,03,19,59,24.00
2012,08,03,20,00,23.90
2012,08,03,20,01,23.80
2012,08,03,20,02,23.70
2012,08,03,20,03,23.70
2012,08,03,20,04,23.70
2012,08,03,20,05,23.70
2012,08,03,20,06,23.70
2012,08,03,20,07,23.70
2012,08,03,20,09,23.70
2012,08,03,20,10,23.70
2012,08,03,20,11,23.70
2012,08,03,20,12,23.80
2012,08,03,20,13,23.80
2012,08,03,20,14,23.80
2012,08,03,20,15,23.80
2012,08,03,20,16,23.80
2012,08,03,20,17,23.80
2012,08,03,20,19,23.90
2012,08,03,20,20,23.90
2012,08,03,20,21,23.90
2012,08,03,20,22,23.90
2012,08,03,20,24,24.00
2012,08,03,20,25,24.00
2012,08,03,20,26,24.00
2012,08,03,20,28,24.00
2012,08,03,20,29,24.10
2012,08,03,20,30,24.00
2012,08,03,20,31,23.90
2012,08,03,20,32,23.80
2012,08,03,20,34,23.80
2012,08,03,20,35,23.60
2012,08,03,20,36,23.50
2012,08,03,20,37,23.40
2012,08,03,20,39,23.30
2012,08,03,20,40,23.20
2012,08,03,20,41,23.20
2012,08,03,20,42,23.10
2012,08,03,20,43,23.10
2012,08,03,20,44,23.10
2012,08,03,20,45,22.90
2012,08,03,20,46,22.90
2012,08,03,20,47,22.80
2012,08,03,20,48,22.80
2012,08,03,20,49,22.70
2012,08,03,20,50,22.60
2012,08,03,20,51,22.60
2012,08,03,20,52,22.50
2012,08,03,20,53,22.40
2012,08,03,20,54,22.40
2012,08,03,20,55,22.30
2012,08,03,20,56,22.30
2012,08,03,20,57,22.30
2012,08,03,20,58,22.20
2012,08,03,20,59,22.20
2012,08,03,21,00,22.20
2012,08,03,21,01,22.10
2012,08,03,21,02,22.10
2012,08,03,21,04,22.00
2012,08,03,21,05,21.90
2012,08,03,21,06,21.90
2012,08,03,21,08,21.90
2012,08,03,21,09,21.80
2012,08,03,21,10,21.80
2012,08,03,21,11,21.80
2012,08,03,21,13,21.70
2012,08,03,21,14,21.70
2012,08,03,21,15,21.60
2012,08,03,21,17,21.60
2012,08,03,21,18,21.60
2012,08,03,21,19,21.60
2012,08,03,21,20,21.60
2012,08,03,21,21,21.60
2012,08,03,21,22,21.60
2012,08,03,21,23,21.60
2012,08,03,21,24,21.60
2012,08,03,21,25,21.60
2012,08,03,21,26,21.60
2012,08,03,21,27,21.50
2012,08,03,21,28,21.50
2012,08,03,21,29,21.50
2012,08,03,21,30,21.50
2012,08,03,21,32,21.50
2012,08,03,21,33,21.40
2012,08,03,21,34,21.40
2012,08,03,21,35,21.40
2012,08,03,21,37,21.40
2012,08,03,21,38,21.40
2012,08,03,21,39,21.40
2012,08,03,21,40,21.30
2012,08,03,21,41,21.30
2012,08,03,21,43,21.30